Retour au catalogue

STARLINK-36647

ActifCommunicationsVLEO
NORAD 67824·PAYLOAD·🇺🇸 United States

Lancé Feb 16, 2026 depuis Vandenberg Space Force Base

Loading…

Prochains Passages (prochaines 24 heures)

TLE

FraisSource: CelesTrak SupGP

Époque: Sep 15, 2026, 03:00 UTC

1 67824C 26033D   26258.12548611 -.00008360  00000+0 -30276-3 0  2589
2 67824  43.0019 277.1001 0001242 264.3359 224.6017 15.27587025    10

Suivez STARLINK-36647 en temps réel avec AllMySat

Download on the App Store